Погода в Петриковке

Украина / Днепропетровская область     47°59′30″N   34°26′31″E
темп.,
°C
ветер,
м/с
пор.,
м/с
влажн.,
%
обл.,
%
осадки,
мм/ч
давл.,
гПа
погр.,
м
23 октября, сб
сб2300:00+13юз485780 0.0 1015157
03:00+12юз476896 0.0 1015119
06:00+11зюз3377100 0.0 101548
09:00+13зсз3652100 0.0 1016211
12:00+14зсз2353100 0.3 1017349
15:00+12юз3569100 0.9 1017326
18:00+12з3561100 0.0 1018162
21:00+9зсз36703 0.0 1020103
24 октября, вс
вс2400:00+7ссз35691 0.0 102181
03:00+6ссз3460100 0.0 102151
06:00+5сз3366100 0.0 102241
09:00+7сз5854100 0.0 1023364
12:00+10сз67425 0.0 10231421
15:00+11сз783796 0.0 10222067
18:00+9ссз6951100 0.0 10241087
21:00+7ссз61057100 0.1 1026997
25 октября, пн
пн2500:00+6ссз6861100 0.0 1027957
03:00+3ссз510755 0.1 1028431
06:00+2ссз410715 0.0 1030378
09:00+3с59675 0.0 1031530
12:00+6с56435 0.0 10321129
15:00+8с55340 0.0 10321269
18:00+5с34410 0.0 103360
21:00+3ссв23450 0.0 103426
26 октября, вт
вт2600:00+2всв22460 0.0 103414
03:00+1всв22490 0.0 103413
06:000в22530 0.0 103413
09:00+3вюв23440 0.0 1034147
12:00+8юв34290 0.0 1033746
15:00+10ююв33230 0.0 1031887
18:00+6ююв33310 0.0 103121
21:00+4юв33330 0.0 103017
27 октября, ср
ср2700:00+3ююв34560 0.0 103043
03:00+2юв34650 0.0 102946
06:00+1юв35615 0.0 102861
09:00+4юв255670 0.0 1028173
12:00+9юв343853 0.0 1027631
15:00+11ююв323070 0.0 1024846
18:00+7ююз2242100 0.0 102410
21:00+7зсз2245100 0.0 102411